Content
SEND FEEDBACK

Daily
Averages
Monthly
Summary
Canada

MONCTON, NEW BRUNSWICK


Home > North America > Canada > New Brunswick
Elevation: 232 feet     Latitude: 46 07N     Longitude: 064 41W

WEATHER
 
SELECT A DAY
Number of Records: 203,607;   Date Range: 1/1/95 - 9/15/14
 
SHARE

PRINT THIS DATA

[ ← Previous Day ]
WEATHER ALMANAC - JUNE 14, 2013
[ Next Day → ]
[ °C ]   °F
Weather ElementAverageHighLow
Temperature52 °F60 °F (3:00 pm)42.8 °F (5:00 am)
Dewpoint47.2 °F51.8 °F (5:00 pm)41 °F (5:00 am)
Humidity83.6 %100 % (6:00 am)60 % (3:00 pm)
Barometer29.71 in29.76 in (1:00 am)29.68 in (5:00 pm)
Wind Speed4.5 mph8.1 mph (1:00 pm)
Weather ElementAverage
Visibility15 mi
Wind DirectionESE (128.5 °)

Weather ElementTotal
Precipitation---
Heating Degree Days13.6 (Base 65)
Growing Degree Days1.4 (Base 50)
Averaged from 28 records on June 14, 2013
WEATHER CONDITIONS BREAKOUT
WIND DIRECTION BREAKOUT
WEATHER BY HOUR - JUNE 14, 2013
[ °C ]   °F
Local TimeTemperatureDewpointHumidityBarometerVisibilityWind DirectionWind SpeedGust SpeedPrecipitationEventsConditions
1:00 AM46.4 °F44.6 °F93 %29.76 in15.0 miWest (270°)2.3 mphScattered Clouds
2:00 AM44.6 °F42.8 °F93 %29.75 in15.0 miWSW (250°)3.5 mphPartly Cloudy
3:00 AM44.0 °F43.0 °F96 %29.74 in15.0 miSW (230°)3.5 mphFogPatches of Fog
3:00 AM44.6 °F42.8 °F93 %29.73 in15.0 miWSW (240°)2.3 mphFogShallow Fog
4:00 AM44.6 °F42.8 °F93 %29.74 in15.0 miWest (270°)2.3 mphFogShallow Fog
5:00 AM42.8 °F41.0 °F93 %29.73 in15.0 miSouth (180°)4.6 mphFogShallow Fog
6:00 AM42.8 °F42.8 °F100 %29.73 in15.0 miSW (220°)3.5 mphOvercast
7:00 AM44.6 °F42.8 °F93 %29.74 in15.0 miSW (220°)3.5 mphOvercast
8:00 AM46.4 °F44.6 °F93 %29.74 in15.0 miWest (260°)2.3 mphOvercast
9:00 AM49.0 °F47.0 °F92 %29.74 in15.0 miEast (100°)2.3 mphOvercast
9:00 AM50.0 °F48.2 °F94 %29.74 in15.0 miEast (100°)3.5 mphOvercast
9:43 AM51.8 °F48.2 °F88 %29.73 in15.0 miENE (60°)4.6 mphOvercast
10:00 AM53.6 °F48.2 °F82 %29.72 in15.0 miEast (80°)5.8 mphMostly Cloudy
11:00 AM57.2 °F46.4 °F67 %29.71 in15.0 miENE (70°)6.9 mphMostly Cloudy
12:00 PM57.2 °F48.2 °F72 %29.70 in15.0 miNNE (30°)6.9 mphOvercast
1:00 PM59.0 °F50.0 °F72 %29.70 in15.0 miNorth (10°)8.1 mphOvercast
2:00 PM59.0 °F50.0 °F72 %29.69 in15.0 miNNE (20°)5.8 mphOvercast
3:00 PM60.0 °F50.0 °F60 %29.69 in15.0 miCalmOvercast
3:00 PM59.0 °F50.0 °F72 %29.69 in15.0 miNNE (20°)4.6 mphOvercast
4:00 PM59.0 °F50.0 °F72 %29.70 in15.0 miNE (40°)5.8 mphOvercast
5:00 PM59.0 °F51.8 °F77 %29.68 in15.0 miNE (50°)4.6 mphOvercast
6:00 PM59.0 °F51.8 °F77 %29.68 in15.0 miESE (110°)5.8 mphOvercast
7:00 PM57.2 °F50.0 °F77 %29.68 in15.0 miEast (90°)8.1 mphOvercast
8:00 PM55.4 °F50.0 °F82 %29.68 in15.0 miENE (70°)5.8 mphMostly Cloudy
9:00 PM53.0 °F49.0 °F80 %29.69 in15.0 miEast (100°)5.8 mphMostly Cloudy
9:00 PM53.6 °F48.2 °F82 %29.69 in15.0 miEast (100°)5.8 mphMostly Cloudy
10:00 PM51.8 °F48.2 °F88 %29.70 in15.0 miSE (130°)4.6 mphMostly Cloudy
11:00 PM51.8 °F48.2 °F88 %29.70 in15.0 miSSE (150°)2.3 mphMostly Cloudy
Hourly data recorded from CYQM, located miles away from Moncton, New Brunswick







STORIES FROM OUR PARTNERS